Regional Weather Roundup
Issued by NWS Cleveland, OH

Home | Current Version | Previous Version | Text Only | Print | Product List | Glossary Off
Versions: 1 2 3 4 5 6 7 8 9 10 11 12 13 14 15 16 17 18 19 20 21 22 23 24 25 26 27 28 29 30 31 32 33 34 35 36 37 38 39 40 41 42 43 44 45 46 47 48 49 50

000
ASUS41 KCLE 271510
RWRCLE
OHIO REGIONAL WEATHER ROUNDUP
NATIONAL WEATHER SERVICE WILMINGTON, OH
1100 AM EDT SAT AUG 27 2016

NOTE: "FAIR" INDICATES FEW OR NO CLOUDS BELOW 12,000 FEET WITH NO
SIGNIFICANT WEATHER AND/OR OBSTRUCTIONS TO VISIBILITY.

OHZ001>008-015>018-024>027-034-035-043-044-271600-
   NORTHWEST OHIO

CITY           SKY/WX    TMP DP  RH WIND       PRES   REMARKS
DEFIANCE       FAIR      81  67  62 SE6       30.12F
FINDLAY        FAIR      84  69  60 SE10      30.13F
TOLEDO EXPRESS PTSUNNY   78  67  68 VRB3      30.13F
TOLEDO EXEC    FAIR      80  67  64 SE6       30.14F
LIMA           FAIR      82  73  74 SE9       30.14F
$$

OHZ009>014-019>023-028>033-038-089-271600-
   NORTHEAST OHIO

CITY           SKY/WX    TMP DP  RH WIND       PRES   REMARKS
CLE-HOPKINS    FAIR      84  62  47 SE10      30.18S
CLE-LAKEFRONT  FAIR      83  62  49 SE12      30.15S
CUY CO. ARPT   MOSUNNY   82  66  57 SE12      30.18S
LORAIN-ELYRIA  FAIR      80  66  62 S7        30.16F
ASHTABULA      FAIR      76  65  68 SE9       30.20F
AKRON-CANTON   FAIR      80  63  55 SE10      30.19S
WOOSTER        FAIR      79  66  64 SE7       30.19S
MANSFIELD      FAIR      82  68  62 SE8       30.18F
YOUNGSTOWN     PTSUNNY   78  65  63 SE9       30.20S
$$

OHZ042-051>053-060>062-070>072-077>081-271600-
  SOUTHWEST OHIO

CITY           SKY/WX    TMP DP  RH WIND       PRES   REMARKS
CINC-COVINGTON FAIR      85  74  69 SE7       30.13S HX  92
CINC-LUNKEN    NOT AVBL
HAMILTON       FAIR      85  74  69 SW3       30.14S HX  92
DAYTON         FAIR      82  73  74 S5        30.16S
WRIGHT-PAT AFB MOSUNNY   83  74  74 S6        30.14S
DAYTON GENERAL FAIR      83  73  72 S6        30.14S
WILMINGTON     FAIR      84  74  71 S8        30.14F HX  91
$$

OHZ036-037-039>041-045>050-054>059-063>069-073>076-082>088-271600-
  CENTRAL AND SOUTHEAST OHIO

CITY           SKY/WX    TMP DP  RH WIND       PRES   REMARKS
COLUMBUS       PTSUNNY   82  70  66 SE12      30.15S
OSU AIRPORT    FAIR      83  72  69 SE7       30.15F
BOLTON FIELD   SUNNY     82  75  78 S6        30.16S
RICKENBACK AFB FAIR      82  73  73 SE7       30.15S
NEWARK         FAIR      83  71  67 VRB6      30.16S
MARION         FAIR      82  70  66 S7        30.17S
LANCASTER      FAIR      83  73  72 SE8       30.16F
ZANESVILLE     FAIR      82  72  71 VRB5      30.17S
NEW PHILLY     FAIR      82  65  56 S5        30.18S
$$




USA.gov is the U.S. government's official web portal to all federal, state and local government web resources and services.